#timestamp,LO_Frequency,Hit,StdDev 
1649275215.2,286046999.0,N
1649275235.1,286046997.0,N
1649275236.0,286046997.0,N
1649275255.8,286046996.7,N
1649275275.6,286047000.8,N
1649275295.5,286047000.0,N
1649275315.3,286046998.5,N
1649275335.1,286046999.4,N
1649275355.9,286046995.5,N
1649275375.7,286046995.4,N
1649275395.6,286046997.1,N
1649275415.4,286046997.0,N
1649275435.2,286046999.3,N
1649275455.1,286046996.6,N
1649275456.0,286046996.6,N
1649275475.8,286046999.5,N
1649275495.7,286046998.9,N
1649275515.5,286046998.5,N
1649275535.3,286047001.0,N
1649275555.2,286047002.4,N
1649275575.0,286047001.2,N
1649275575.9,286047001.2,N
1649275595.7,286046999.9,N
1649275615.6,286046999.1,N
1649275635.4,286046999.3,N
1649275655.3,286046999.3,N
1649275675.1,286046998.6,N
1649275695.8,286046998.6,N
1649275715.7,286046999.2,N
1649275735.5,286046999.1,N
1649275755.4,286046999.5,N
1649275775.2,286046996.5,N
1649275795.0,286046997.4,N
1649275795.9,286046997.4,N
1649275815.8,286046996.7,N
1649275835.6,286046997.2,N
1649275855.4,286046996.6,N
1649275875.3,286046997.2,N
1649275895.1,286046997.1,N
1649275915.9,286046997.4,N
1649275935.7,286046999.6,N
1649275955.5,286046997.9,N
1649275975.4,286046997.7,N
1649275995.2,286046996.7,N
1649276015.0,286046996.8,N
1649276016.0,286046996.8,N
1649276035.8,286046996.6,N
1649276055.6,286046997.4,N
1649276075.5,286046995.4,N
1649276095.3,286046995.6,N
1649276115.1,286046993.6,Y
1649276135.9,286046995.7,P
1649276155.7,286046995.7,P
1649276175.6,286046995.2,P
1649276195.4,286046997.9,N
1649276215.2,286046996.5,N
1649276235.1,286046999.6,N
1649276236.0,286046999.6,N
1649276255.8,286046997.5,N
1649276275.7,286046997.3,N
1649276295.5,286046997.6,N
1649276315.3,286046996.7,N
1649276335.2,286046995.8,Y
1649276355.0,286046999.3,P
1649276355.9,286046999.3,N
1649276375.7,286046997.1,P
1649276395.6,286046998.7,N
1649276415.4,286046998.4,N
1649276435.3,286046999.3,N
1649276455.1,286046999.0,N
1649276456.0,286046999.0,N
1649276475.8,286046998.9,N
1649276495.7,286046999.5,N
1649276515.5,286046999.0,N
1649276535.4,286047000.8,N
1649276555.2,286047000.1,N
1649276575.0,286046999.9,N
1649276575.9,286046999.9,N
1649276595.8,286047000.5,N
1649276615.6,286047000.3,N
1649276635.4,286047000.3,N
1649276655.3,286047000.0,N
1649276675.1,286047002.7,N
1649276695.9,286046999.9,N
1649276715.7,286046999.9,N
1649276735.5,286047000.5,N
1649276755.4,286047002.3,N
1649276775.2,286047000.2,N
1649276795.0,286046999.7,N
1649276795.9,286046999.7,N
1649276815.8,286047000.2,N
1649276835.6,286046999.8,N
1649276855.5,286047001.0,N
1649276875.3,286046999.8,N
1649276895.1,286047002.5,N
1649276915.9,286047002.7,N
1649276935.7,286047001.6,N
1649276955.6,286047001.6,N
1649276975.4,286047001.8,N
1649276995.2,286047001.6,N
1649277015.1,286047000.1,N
1649277016.0,286047000.1,N
1649277035.8,286047000.0,N
1649277055.6,286047000.3,N
1649277075.5,286047000.2,N
1649277095.3,286047002.8,N
1649277115.2,286047000.4,N
1649277135.9,286047000.6,N
1649277155.7,286047000.1,N
1649277175.6,286047000.1,N
1649277195.4,286047000.2,N
1649277215.2,286047002.8,N
1649277235.1,286047002.8,N
1649277236.0,286047002.8,N
1649277255.8,286047000.1,N
1649277275.7,286046999.9,N
1649277295.5,286046999.9,N
1649277315.3,286047000.6,N
1649277335.2,286046999.8,N
1649277355.0,286047000.9,N
1649277355.9,286047000.9,N
1649277375.8,286047000.3,N
1649277395.6,286047002.4,N
1649277415.4,286047000.2,N
1649277435.3,286047001.8,N
1649277455.1,286047001.5,N
1649277475.8,286047002.6,N
1649277495.7,286047003.2,Y
1649277515.5,286047001.9,P
1649277535.4,286047001.9,P
1649277555.2,286047003.4,P
1649277575.0,286047005.7,Y
1649277575.9,286047005.7,P
1649277595.8,286047001.9,N
1649277615.6,286047002.0,N
1649277635.4,286047001.3,N
1649277655.3,286047004.0,N
1649277675.1,286047003.7,N
1649277695.9,286047001.8,N
1649277715.7,286047001.6,N
1649277735.5,286047002.1,N
1649277755.4,286047001.8,N
1649277775.2,286047004.3,Y
1649277795.1,286046998.5,P
1649277796.0,286046998.5,N
1649277815.8,286046998.5,N
1649277835.6,286046998.1,N
1649277855.5,286046999.8,N
1649277875.3,286046999.8,N
1649277895.2,286047002.7,N
1649277915.9,286047001.6,N
1649277935.7,286047001.7,N
1649277955.6,286047001.6,N
1649277975.4,286046999.8,N
1649277995.2,286047001.1,N
1649278015.1,286047000.5,N
1649278016.0,286047000.5,N
1649278035.8,286046998.1,N
1649278055.7,286047000.7,N
1649278075.5,286047002.6,N
1649278095.3,286046999.8,N
1649278115.2,286047001.3,N
1649278135.9,286047003.6,N
1649278155.7,286047002.5,N
1649278175.6,286047002.3,N
1649278195.4,286047003.6,N
1649278215.3,286047003.6,N
1649278235.1,286047001.4,N
1649278236.0,286047001.4,N
1649278255.8,286047002.0,N
1649278275.7,286047002.6,N
1649278295.5,286047004.1,N
1649278315.3,286047001.4,N
1649278335.2,286047004.2,N
1649278355.0,286047003.6,N
1649278355.9,286047003.6,N
1649278375.8,286047001.5,N
1649278395.6,286047001.5,N
1649278415.4,286047001.4,N
1649278435.3,286047004.4,Y
1649278455.1,286047002.6,P
1649278475.8,286047002.8,P
1649278495.7,286047000.9,N
1649278515.5,286046999.7,N
1649278535.4,286047000.2,N
1649278555.2,286047002.8,N
1649278575.0,286047004.2,Y
1649278575.9,286047004.2,P
1649278595.8,286047002.5,N
1649278615.6,286047001.0,N
1649278635.4,286047000.7,N
1649278655.3,286047000.7,N
1649278675.1,286047000.6,N
1649278695.9,286047001.1,N
1649278715.7,286047000.3,N
1649278735.5,286047001.2,N
1649278755.4,286047000.7,N
1649278775.2,286047000.7,N
1649278795.1,286047000.8,N
1649278796.0,286047000.8,N
